FW1583 Weather Reports


time (UTC)temp
C
wind
direction
speed
KPH
gust
KPH
rain 1hr
cm
rain 24hr
cm
rain mn
cm
humidity
%
barometer
mb
20260504213128 25 85 1.6 6.4 0.00 0.00 0.00 32 1012.3
20260504212129 25 94 1.6 4.8 0.00 0.00 0.00 32 1012.2
20260504211129 26 112 1.6 4.8 0.00 0.00 0.00 32 1012.2
20260504210129 26 130 1.6 6.4 0.00 0.00 0.00 33 1012.1
20260504205130 25 204 3.2 6.4 0.00 0.00 0.00 32 1012.1
20260504204129 25 181 0.0 1.6 0.00 0.00 0.00 34 1012.3
20260504203228 25 280 1.6 4.8 0.00 0.00 0.00 35 1012.2
20260504202328 26 28 1.6 4.8 0.00 0.00 0.00 35 1012.6
20260504201328 26 181 0.0 3.2 0.00 0.00 0.00 43 1012.5
20260504200428 25 147 1.6 4.8 0.00 0.00 0.00 39 1012.6
20260504195431 25 233 1.6 4.8 0.00 0.00 0.00 36 1012.8
20260504194428 25 251 0.0 3.2 0.00 0.00 0.00 36 1012.8
20260504193429 25 215 0.0 3.2 0.00 0.00 0.00 37 1013.0
20260504192428 25 231 3.2 9.7 0.00 0.00 0.00 32 1013.2
20260504191528 25 189 1.6 6.4 0.00 0.00 0.00 34 1013.4
20260504190529 25 251 1.6 4.8 0.00 0.00 0.00 38 1013.7
20260504185628 25 151 0.0 0.0 0.00 0.00 0.00 38 1013.7
20260504184629 24 250 1.6 4.8 0.00 0.00 0.00 34 1014.0
20260504182629 23 221 1.6 6.4 0.00 0.00 0.00 37 1014.3
20260504181628 23 164 1.6 3.2 0.00 0.00 0.00 38 1014.5
20260504180628 23 165 0.0 0.0 0.00 0.00 0.00 40 1014.4
20260504174630 22 194 3.2 8.0 0.00 0.00 0.00 36 1014.9
20260504173729 22 182 0.0 0.0 0.00 0.00 0.00 36 1015.0
20260504172745 22 267 3.2 6.4 0.00 0.00 0.00 35 1015.1
20260504171828 22 293 1.6 6.4 0.00 0.00 0.00 37 1015.1
20260504170927 22 214 0.0 3.2 0.00 0.00 0.00 40 1015.4
20260504150829 20 292 0.0 1.6 0.00 0.00 0.00 39 1016.7
20260504140928 15 157 0.0 0.0 0.00 0.00 0.00 46 1017.0
20260504100229 9 202 0.0 0.0 0.00 0.00 0.00 62 1017.7
20260504081427 9 157 0.0 0.0 0.00 0.00 0.00 67 1018.0
20260504080428 9 157 0.0 0.0 0.00 0.00 0.00 66 1018.1
20260504050727 8 157 0.0 0.0 0.00 0.00 0.00 65 1018.4
20260504045729 8 157 0.0 0.0 0.00 0.00 0.00 65 1018.3
20260504044728 7 157 0.0 0.0 0.00 0.00 0.00 66 1018.2
20260504043729 7 157 0.0 0.0 0.00 0.00 0.00 66 1018.2
20260504041830 7 157 0.0 0.0 0.00 0.00 0.00 64 1018.2
20260504040829 7 157 0.0 0.0 0.00 0.00 0.00 63 1018.2
20260504040728 7 157 0.0 0.0 0.00 0.00 0.00 63 1018.1
20260504034740 8 157 0.0 0.0 0.00 0.00 0.00 61 1018.3
20260504033839 8 157 0.0 0.0 0.00 0.00 0.00 60 1018.4
20260504033739 8 157 0.0 0.0 0.00 0.00 0.00 59 1018.3
20260504032741 8 157 0.0 0.0 0.00 0.00 0.00 57 1018.2
20260504032641 8 157 0.0 0.0 0.00 0.00 0.00 58 1018.2
20260504031640 7 157 0.0 0.0 0.00 0.00 0.00 57 1018.1
20260504030738 7 157 0.0 0.0 0.00 0.00 0.00 57 1018.1
20260504025739 7 157 0.0 0.0 0.00 0.00 0.00 56 1018.0
20260504024838 8 157 0.0 0.0 0.00 0.00 0.00 57 1017.9
20260504023839 8 157 0.0 0.0 0.00 0.00 0.00 58 1018.0
20260504022840 8 157 0.0 0.0 0.00 0.00 0.00 56 1018.0
20260504021938 8 157 0.0 0.0 0.00 0.00 0.00 55 1017.9
20260504020942 8 157 0.0 0.0 0.00 0.00 0.00 54 1017.7
20260504015040 8 157 0.0 0.0 0.00 0.00 0.00 53 1017.5
20260504014138 8 157 0.0 0.0 0.00 0.00 0.00 53 1017.5
20260504013141 9 157 0.0 0.0 0.00 0.00 0.00 52 1017.6
20260504012142 9 157 0.0 0.0 0.00 0.00 0.00 52 1017.5
20260504012040 9 157 0.0 0.0 0.00 0.00 0.00 52 1017.5
20260504011040 10 157 0.0 0.0 0.00 0.00 0.00 51 1017.6
20260504010040 10 157 0.0 0.0 0.00 0.00 0.00 50 1017.5
20260504004238 11 157 0.0 0.0 0.00 0.00 0.00 49 1017.4
20260504002356 12 157 0.0 0.0 0.00 0.00 0.00 45 1017.2
20260504001355 12 157 0.0 0.0 0.00 0.00 0.00 44 1017.2
20260504000440 13 157 0.0 0.0 0.00 0.00 0.00 39 1017.2
20260503235440 13 157 0.0 0.0 0.00 0.00 0.00 35 1017.1
20260503234457 14 157 0.0 0.0 0.00 0.00 0.00 34 1017.1
20260503232457 15 247 0.0 0.0 0.00 0.00 0.00 31 1016.8
20260503232338 15 247 0.0 1.6 0.00 0.00 0.00 31 1016.8
20260503232255 15 251 0.0 3.2 0.00 0.00 0.00 31 1016.9
20260503231241 15 158 0.0 1.6 0.00 0.00 0.00 30 1016.8
20260503230339 16 247 1.6 4.8 0.00 0.00 0.00 32 1016.8
20260503225340 16 242 1.6 4.8 0.00 0.00 0.00 30 1016.8
20260503224341 17 67 0.0 0.0 0.00 0.00 0.00 29 1016.8
20260503223438 17 207 1.6 4.8 0.00 0.00 0.00 30 1016.9
20260503215440 18 241 0.0 3.2 0.00 0.00 0.00 28 1016.8